Regional Weather Roundup
Issued by NWS

Home | Current Version | Previous Version | Graphics & Text | Print | Product List | Glossary On
Versions: 1 2 3 4 5 6 7 8 9 10 11 12 13 14 15 16 17 18 19 20 21 22 23 24 25 26 27 28 29 30 31 32 33 34 35 36 37 38 39 40 41 42 43 44 45 46 47 48 49 50
000
ASUS45 KSLC 252210
RWRUT

UTAH REGIONAL WEATHER ROUNDUP
NATIONAL WEATHER SERVICE SALT LAKE CITY UT
300 PM MST TUE NOV 25 2014

UTZ001>011-023>025-252300-

NORTHERN UTAH

CITY           SKY/WX    TMP DP  RH WIND       PRES   REMARKS
HILL AFB       CLOUDY    43  26  52 E3        30.29F
LOGAN          CLOUDY    42  30  62 VRB3      30.26F
OGDEN          CLOUDY    44  26  49 S6        30.29F
PROVO AIRPORT  CLOUDY    37  19  48 CALM      30.35F
SALT LAKE CITY PTSUNNY   44  26  49 SE10      30.31F
VERNAL         SUNNY     42  16  34 E3        30.15S
WENDOVER       SUNNY     55  32  41 W14       30.29S
HEBER CITY     CLOUDY    36  23  60 CALM      30.31S
WEST JORDAN    CLOUDY    43  27  52 S12       30.33F

$$

UTZ012>022-026-027-252300-

SOUTHERN/CENTRAL UTAH

CITY           SKY/WX    TMP DP  RH WIND       PRES   REMARKS
BLANDING       SUNNY     41   6  23 SW3       30.40F
BRYCE CANYON   MOSUNNY   45  21  38 NW16G26   30.37R
CEDAR CITY     SUNNY     53  16  23 E6        30.35F
DELTA          MOSUNNY   45  17  32 SW3       30.36F
MILFORD        SUNNY     54  14  20 S9        30.34S
MOAB/CYNLANDS  SUNNY     45   9  23 W10       30.26F
PRICE          PTSUNNY   37  11  34 E3        30.27F
ST GEORGE      PTCLDY    54  12  19 CALM      30.39F
KANAB          SUNNY     54  10  17 S10       30.39F

$$

REGIONAL REPORTS     COLORADO/ARIZONA

CITY           SKY/WX    TMP DP  RH WIND       PRES   REMARKS
CRAIG, CO      CLOUDY    27  20  75 E13       30.16S WCI  16
GRAND JUNCTION SUNNY     39  14  36 CALM      30.29F
RIFLE          CLOUDY    27  19  72 NE3       30.30F
MONTROSE       CLOUDY    34  13  41 CALM      30.30F
CORTEZ         SUNNY     43   6  21 NW9       30.33S
PAGE, AZ       SUNNY     50   5  16 E5        30.34F
GRAND CANYON   SUNNY     49   6  17 W9G17     30.40F
KINGMAN        SUNNY     64   2   8 N6        30.38F
FLAGSTAFF      SUNNY     52   4  14 VRB7G18   30.38F

$$

REGIONAL REPORTS    NEVADA/IDAHO/WYOMING

CITY           SKY/WX    TMP DP  RH WIND       PRES   REMARKS
LAS VEGAS, NV  SUNNY     61  11  14 S5        30.33F
ELY            MOSUNNY   53  38  56 NW14G20   30.41F
ELKO           SUNNY     51  31  46 SW17      30.39F
POCATELLO, ID  PTSUNNY   48  39  71 SW31G45   30.14F
BURLEY         CLOUDY    52  37  56 W20G30    30.18S
EVANSTON, WY   MIX PCPN  33  29  85 SW31G44   30.21R WCI  19
ROCK SPRINGS   CLOUDY    37  27  67 W23G38    30.08R WCI  26
KEMMERER       SNOW      32  32 100 W45G52    30.08R VSB 1/2 WCI  15

$$



USA.gov is the U.S. government's official web portal to all federal, state and local government web resources and services.